Location: Stockholm
(59.3293°N, 18.0686°E)
Time: 07:29:46
(UTC+02:00)

Envisat - Visible Passes

Search period start: 19 August 2018 00:00
Search period end: 29 August 2018 00:00
Orbit: 764 x 766 km, 98.2° (Epoch: 18 August)

Date Brightness Start Highest point End Pass type
(mag) Time Alt. Az. Time Alt. Az. Time Alt. Az.
20 Aug 5.7 21:24:31 10° WSW 21:27:42 16° W 21:30:53 10° NW visible
22 Aug 6.1 21:52:31 10° W 21:53:44 11° WNW 21:54:58 10° WNW visible
23 Aug 5.7 21:12:45 10° SW 21:16:21 19° W 21:20:00 10° NW visible
25 Aug 5.9 21:40:03 10° WSW 21:42:21 13° W 21:44:40 10° NW visible
26 Aug 5.5 21:01:04 10° SW 21:05:02 23° W 21:09:01 10° NW visible
28 Aug 5.8 21:28:02 10° WSW 21:30:59 15° W 21:33:58 10° NW visible
